{"data":{"norad_id":59086,"intl_designator":"2024-041N","name":"STARLINK-31279","alt_names":[],"object_type":"PAYLOAD","status":"ACTIVE","operator":null,"country":"US","launch_date":"2024-02-29","launch_site_code":"AFETR","launch_vehicle":null,"mission":null,"orbit_class":"UNKNOWN","rcs_meters":null,"size_class":null,"mass_kg":null,"dimensions":null,"purposes":["comms"],"wikipedia_slug":null,"has_3d_model":false,"image_url":null,"decayed_at":null,"tle_current":{"epoch":"2026-09-20T09:14:52.747872Z","epoch_age_seconds":168791,"freshness":"FRESH","line1":"1 59086U 24041N   26263.38533273 -.00000209  00000+0  19089-5 0  9995","line2":"2 59086  42.9995 291.5079 0000993 282.3695  77.7046 15.27577712144090","mean_motion":15.27577712,"eccentricity":9.93e-5,"inclination_deg":42.9995,"raan_deg":291.5079,"arg_perigee_deg":282.3695,"mean_anomaly_deg":77.7046,"bstar":1.9089e-6,"rev_number":14409,"period_min":94.266889906024,"perigee_km":482.37463068366,"apogee_km":483.73726360296,"semimajor_km":6861.1929471433,"source":"CELESTRAK","updated_at":"2026-09-21T09:00:34.035848Z"}}}